Voltar ao catálogo

STARLINK-3930

AtivoComunicaçõesVLEO
NORAD 52568·PAYLOAD·🇺🇸 United States

Lançado May 13, 2022 de Vandenberg Space Force Base

Loading…

Próximas Passagens (próximas 24 horas)

TLE

AtualizadoSource: CelesTrak SupGP

Época: Sep 15, 2026, 02:35 UTC

1 52568C 22051AM  26258.10812500  .00052053  00000+0  15382-2 0  2589
2 52568  53.1584 333.0933 0001192  87.2411 274.0627 15.34359206    11

Acompanhe STARLINK-3930 em tempo real com AllMySat

Download on the App Store